Location: Newark
(0.5300°S, 127.4800°E)
Time: 08:13:57
(UTC+00:00)

Vanguard 3 - Pass Details

Date: 24 September 2019
Orbit: 508 x 3262 km, 33.3° (Epoch: 23 October)

Event Time Altitude Azimuth Distance (km) Brightness Sun altitude
Rises 22:46:32 0° 296° (WNW) 5,137 10.7 21.1°
Reaches altitude 10° 22:51:35 10° 316° (NW) 4,664 10.7 22.4°
Maximum altitude 22:59:34 17° 352° (N) 4,775 11.1 24.4°
Drops below altitude 10° 23:09:31 10° 26° (NNE) 5,930 12.0 26.9°
Sets 23:17:45 0° 44° (NE) 7,191 12.6 28.9°
